Location: Eurasberg
(48.3353°N, 11.0839°E)
Time: 09:19:33
(UTC+00:00)

BREEZE-M DEB (TANK) - Pass Details

Date: 18 January 2026
Orbit: 358 x 16119 km, 49.4° (Epoch: 18 February)

Event Time Altitude Azimuth Distance (km) Brightness Sun altitude
Exits shadow 04:20:15 46° 269° (W) 1,869 4.4 -26.0°
Maximum altitude 04:23:11 86° 355° (N) 1,963 4.9 -25.5°
Drops below altitude 10° 04:57:02 10° 90° (E) 12,235 10.3 -19.9°
Sets 05:18:50 0° 94° (E) 16,759 11.6 -16.4°
